Location: Dana
(41.8364°N, 106.7042°W)
Time: 02:46:49
(UTC+00:00)

Altair - Pass Details

Date: 16 May 2026
Orbit: 1501 x 1682 km, 47.2° (Epoch: 6 June)

Event Time Altitude Azimuth Distance (km) Brightness Sun altitude
Rises 10:15:03 0° 204° (SSW) 4,769 - -14.6°
Reaches altitude 10° 10:18:23 10° 196° (SSW) 3,813 - -14.2°
Exits shadow 10:18:35 11° 196° (SSW) 3,759 9.0 -14.1°
Maximum altitude 10:27:04 38° 133° (SE) 2,333 8.5 -13.0°
Drops below altitude 10° 10:36:00 10° 71° (ENE) 3,932 10.9 -11.7°
Sets 10:39:28 0° 64° (ENE) 4,933 12.0 -11.2°
